FW4844 Weather Reports


time (UTC)temp
C
wind
direction
speed
KPH
gust
KPH
rain 1hr
cm
rain 24hr
cm
rain mn
cm
humidity
%
barometer
mb
20260507021331 5 288 3.2 8.0 0.00 3.10 3.05 97 1006.5
20260507020831 5 284 3.2 6.4 0.00 3.12 3.05 97 1006.6
20260507020331 5 280 3.2 6.4 0.00 3.12 3.05 97 1006.5
20260507015828 5 279 3.2 6.4 0.00 3.12 3.05 97 1006.5
20260507015322 5 322 1.6 4.8 0.00 3.12 3.05 97 1006.7
20260507014823 5 321 3.2 8.0 0.00 3.12 3.05 97 1006.7
20260507014323 5 344 4.8 11.3 0.00 3.12 3.05 97 1006.8
20260507013825 5 291 4.8 12.9 0.00 3.12 3.05 97 1006.8
20260507013323 5 247 4.8 12.9 0.00 3.12 3.05 97 1006.7
20260507012822 5 319 4.8 17.7 0.00 3.12 3.05 97 1006.6
20260507012322 5 244 4.8 17.7 0.00 3.12 3.05 97 1006.5
20260507012044 5 262 4.8 11.3 0.03 3.12 3.05 97 1006.5
20260507011321 5 328 4.8 14.5 0.05 3.12 3.05 97 1006.4
20260507010822 5 248 4.8 14.5 0.08 3.12 3.05 97 1006.4
20260507010321 5 319 6.4 22.5 0.10 3.12 3.05 97 1006.4
20260507010041 5 255 6.4 22.5 0.10 3.12 3.05 97 1006.5
20260507005322 5 253 6.4 19.3 0.10 3.12 3.05 97 1006.2
20260507004822 5 299 6.4 14.5 0.13 3.12 3.05 98 1006.1
20260507004322 5 238 4.8 14.5 0.15 3.12 3.05 98 1006.0
20260507003822 5 290 3.2 11.3 0.15 3.12 3.05 98 1006.1
20260507003322 5 254 4.8 11.3 0.15 3.12 3.05 98 1006.0
20260507002821 5 247 4.8 12.9 0.15 3.12 3.05 98 1006.0
20260507002318 5 258 6.4 12.9 0.15 3.12 3.05 98 1006.0
20260507001818 5 317 6.4 12.9 0.13 3.12 3.02 98 1005.9
20260507001317 5 238 6.4 16.1 0.13 3.10 3.00 98 1005.9
20260507000817 5 247 6.4 16.1 0.10 3.07 2.97 98 1006.0
20260507000317 6 293 6.4 14.5 0.08 3.05 2.95 98 1005.9
20260506235818 6 257 4.8 14.5 0.08 3.05 2.95 98 1005.9
20260506235318 6 257 6.4 16.1 0.08 3.05 2.95 98 1005.7
20260506234818 6 237 6.4 16.1 0.05 3.02 2.92 98 1005.6
20260506234314 6 257 4.8 14.5 0.03 3.00 2.90 98 1005.6
20260506233813 5 271 1.6 8.0 0.03 3.00 2.90 98 1005.5
20260506233532 5 138 0.0 3.2 0.03 3.00 2.90 98 1005.3
20260506232812 5 138 0.0 3.2 0.05 3.00 2.90 98 1005.2
20260506232530 5 138 1.6 4.8 0.08 3.00 2.90 98 1005.1
20260506231810 5 138 0.0 4.8 0.10 3.00 2.90 98 1005.1
20260506231307 5 138 0.0 3.2 0.08 2.97 2.87 98 1005.0
20260506230806 5 138 1.6 4.8 0.08 2.97 2.87 98 1004.9
20260506230304 5 138 1.6 4.8 0.10 2.97 2.87 98 1004.8
20260506225801 5 138 1.6 6.4 0.10 2.97 2.87 98 1004.8
20260506225306 5 138 1.6 6.4 0.10 2.97 2.87 98 1004.8
20260506224258 5 125 0.0 3.2 0.10 2.97 2.87 98 1004.8
20260506223757 6 124 1.6 4.8 0.13 2.97 2.87 98 1004.7
20260506223513 6 123 1.6 4.8 0.15 2.97 2.87 98 1004.6
20260506222748 6 123 1.6 3.2 0.13 2.95 2.84 98 1004.6
20260506222245 6 123 1.6 4.8 0.10 2.92 2.82 98 1004.7
20260506222005 6 123 1.6 4.8 0.08 2.90 2.79 98 1004.7
20260506221502 6 121 1.6 4.8 0.08 2.90 2.79 98 1004.6
20260506220741 6 121 1.6 4.8 0.08 2.90 2.79 98 1004.5
20260506220508 6 121 1.6 4.8 0.05 2.87 2.77 98 1004.4
20260506215741 6 122 1.6 4.8 0.05 2.87 2.77 98 1004.7
20260506215241 6 122 1.6 4.8 0.05 2.87 2.77 98 1004.6
20260506214739 6 121 1.6 4.8 0.05 2.87 2.77 98 1004.6
20260506214239 6 121 1.6 4.8 0.08 2.87 2.77 98 1004.5
20260506213737 6 120 1.6 4.8 0.05 2.84 2.74 98 1004.4
20260506213237 6 120 0.0 3.2 0.03 2.82 2.72 98 1004.5
20260506212738 6 121 0.0 1.6 0.03 2.82 2.72 98 1004.5
20260506212237 6 120 0.0 1.6 0.03 2.82 2.72 98 1004.6
20260506211230 6 121 1.6 3.2 0.05 2.82 2.72 98 1004.1
20260506210724 6 121 1.6 3.2 0.05 2.82 2.72 98 1004.1
20260506210214 6 120 1.6 3.2 0.05 2.82 2.72 98 1004.1
20260506205707 6 119 1.6 3.2 0.08 2.82 2.72 98 1004.0
20260506205202 6 119 0.0 1.6 0.08 2.82 2.72 98 1004.0
20260506204653 6 119 1.6 3.2 0.10 2.82 2.72 98 1004.0
20260506204147 6 119 1.6 3.2 0.08 2.79 2.69 98 1003.9
20260506203641 6 119 0.0 3.2 0.08 2.82 2.69 98 1003.9
20260506203130 5 119 0.0 1.6 0.08 2.82 2.69 98 1003.9
20260506202624 5 119 0.0 1.6 0.10 2.84 2.69 98 1003.9
20260506202122 5 119 0.0 1.6 0.10 2.87 2.69 98 1004.0
20260506201623 5 119 0.0 3.2 0.08 2.84 2.69 98 1003.9
20260506201123 5 119 1.6 3.2 0.08 2.95 2.67 98 1004.0
20260506200622 5 119 0.0 1.6 0.10 3.05 2.67 98 1004.0
20260506200122 5 119 1.6 3.2 0.10 3.05 2.67 98 1004.0
20260506195621 5 119 1.6 4.8 0.08 3.02 2.64 98 1004.0
20260506194622 5 118 1.6 4.8 0.05 3.00 2.62 98 1004.2
20260506194124 5 118 1.6 4.8 0.08 3.00 2.62 98 1004.1
20260506193621 5 117 1.6 4.8 0.08 3.00 2.62 98 1004.1
20260506193121 5 117 1.6 4.8 0.05 2.97 2.59 98 1004.1
20260506192621 5 117 1.6 9.7 0.08 2.97 2.59 98 1004.1
20260506192121 5 118 1.6 9.7 0.10 2.97 2.59 98 1004.1
20260506191622 5 126 3.2 9.7 0.13 2.97 2.59 98 1004.0
20260506191121 5 98 3.2 11.3 0.13 2.97 2.59 98 1004.0
20260506190621 5 189 3.2 11.3 0.13 2.95 2.57 98 1004.0
20260506190342 5 124 3.2 6.4 0.15 2.95 2.57 98 1004.0
20260506185621 5 144 3.2 8.0 0.15 2.95 2.57 98 1004.1
20260506185122 5 146 3.2 8.0 0.18 2.95 2.57 98 1004.0
20260506184620 5 128 1.6 9.7 0.18 2.95 2.57 98 1004.1
20260506184346 5 124 1.6 9.7 0.15 2.92 2.54 98 1004.1
20260506183616 5 123 3.2 9.7 0.15 2.97 2.54 98 1004.1
20260506183338 5 119 3.2 9.7 0.18 2.97 2.54 98 1004.0
20260506182615 5 128 3.2 11.3 0.15 2.95 2.51 98 1004.1
20260506182115 5 130 3.2 11.3 0.15 2.92 2.49 98 1004.2
20260506181615 5 131 3.2 6.4 0.13 2.90 2.49 98 1004.4
20260506181336 5 107 3.2 6.4 0.15 2.90 2.46 98 1004.6
20260506180620 5 103 1.6 4.8 0.15 2.87 2.44 98 1004.6
20260506180113 5 84 1.6 4.8 0.15 2.84 2.41 98 1004.5
20260506175613 5 84 0.0 3.2 0.20 2.84 2.41 98 1004.4
20260506175111 5 83 0.0 3.2 0.20 2.82 2.39 98 1004.5
20260506174611 5 83 1.6 4.8 0.25 2.82 2.39 98 1004.5
20260506174109 5 83 1.6 4.8 0.28 2.82 2.39 98 1004.5
20260506173607 5 84 1.6 4.8 0.30 2.82 2.39 98 1004.5
20260506173330 5 84 1.6 4.8 0.33 2.79 2.36 98 1004.5
20260506172827 5 82 1.6 4.8 0.36 2.79 2.36 98 1004.5
20260506172327 5 82 1.6 6.4 0.36 2.77 2.34 98 1004.6
20260506171605 5 82 1.6 6.4 0.41 2.77 2.34 97 1004.7
20260506171105 5 55 1.6 4.8 0.41 2.74 2.31 97 1004.7
20260506170605 5 54 0.0 3.2 0.41 2.72 2.29 97 1004.8
20260506170327 5 54 1.6 4.8 0.41 2.69 2.26 98 1004.8
20260506165605 5 54 1.6 4.8 0.36 2.64 2.21 97 1004.8
20260506165102 5 55 1.6 4.8 0.38 2.62 2.18 98 1004.7
20260506164604 5 55 1.6 4.8 0.36 2.57 2.13 98 1004.7
20260506164315 5 54 1.6 6.4 0.33 2.54 2.11 98 1004.7
20260506163557 5 54 1.6 6.4 0.33 2.51 2.08 98 1004.6
20260506163100 5 53 1.6 6.4 0.30 2.46 2.03 98 1004.7
20260506162557 5 53 3.2 11.3 0.30 2.44 2.01 98 1004.7
20260506162057 5 49 1.6 11.3 0.30 2.41 1.98 98 1004.6
20260506161558 5 63 1.6 3.2 0.30 2.36 1.93 98 1004.8
20260506161054 5 63 1.6 4.8 0.30 2.34 1.91 98 1004.8
20260506160555 5 63 0.0 4.8 0.30 2.31 1.88 98 1004.8
20260506160054 5 61 1.6 3.2 0.33 2.29 1.85 98 1004.9
20260506155555 5 61 0.0 3.2 0.36 2.29 1.85 98 1004.9
20260506155055 5 61 1.6 4.8 0.33 2.24 1.83 98 1005.1
20260506154556 5 61 3.2 8.0 0.33 2.21 1.80 98 1005.0
20260506154055 5 61 3.2 8.0 0.36 2.21 1.78 98 1004.9
20260506153820 5 90 3.2 9.7 0.36 2.18 1.75 97 1004.8
20260506153053 5 115 1.6 9.7 0.36 2.16 1.73 97 1004.9
20260506152812 5 139 3.2 12.9 0.36 2.13 1.70 97 1005.0
20260506152052 5 140 3.2 12.9 0.36 2.11 1.68 97 1005.1
20260506151554 5 88 3.2 14.5 0.36 2.06 1.63 98 1005.1
20260506151053 5 122 4.8 14.5 0.36 2.03 1.60 98 1005.0
20260506150553 5 137 3.2 12.9 0.38 2.01 1.57 97 1005.1
20260506150051 5 132 3.2 14.5 0.36 1.96 1.52 97 1005.2
20260506145806 6 117 4.8 16.1 0.36 1.93 1.50 97 1005.2
20260506145048 6 134 4.8 16.1 0.36 1.91 1.47 97 1005.2
20260506144813 6 121 4.8 17.7 0.33 1.88 1.45 98 1005.2
20260506144049 6 99 4.8 17.7 0.33 1.85 1.42 98 1004.9
20260506143548 6 123 4.8 12.9 0.33 1.83 1.40 98 1005.1
20260506143048 6 116 4.8 12.9 0.30 1.80 1.37 97 1005.0
20260506142049 6 120 3.2 12.9 0.30 1.75 1.32 97 1005.2
20260506141814 6 136 4.8 12.9 0.28 1.70 1.27 98 1005.1
20260506141049 6 140 4.8 16.1 0.28 1.68 1.24 98 1005.1
20260506140549 6 98 4.8 16.1 0.25 1.63 1.19 97 1005.2
20260506140314 6 120 6.4 14.5 0.25 1.60 1.17 97 1005.0
20260506135807 6 98 6.4 14.5 0.28 1.57 1.14 97 1005.1
20260506135306 6 130 6.4 14.5 0.30 1.55 1.14 97 1005.1
20260506134809 6 121 4.8 14.5 0.33 1.55 1.12 97 1005.1
20260506134045 6 156 6.4 19.3 0.33 1.52 1.09 97 1005.0
20260506133544 6 76 4.8 19.3 0.33 1.50 1.07 98 1004.9
20260506133045 7 149 4.8 12.9 0.36 1.50 1.07 97 1005.2
20260506132544 7 154 3.2 12.9 0.33 1.47 1.04 97 1005.3
20260506132044 7 142 3.2 14.5 0.33 1.45 1.02 98 1005.3
20260506131544 7 115 3.2 14.5 0.36 1.42 0.99 98 1005.3
20260506131045 7 151 3.2 9.7 0.36 1.40 0.97 98 1005.5
20260506130544 7 166 3.2 12.9 0.36 1.37 0.94 97 1005.4
20260506130044 7 161 3.2 12.9 0.38 1.35 0.91 97 1005.3
20260506125544 7 164 3.2 8.0 0.36 1.30 0.86 98 1005.6
20260506125044 7 119 1.6 6.4 0.36 1.24 0.81 97 1005.4
20260506124542 7 117 1.6 6.4 0.36 1.22 0.79 98 1005.4
20260506124044 7 142 3.2 6.4 0.36 1.19 0.76 98 1005.3
20260506123541 7 152 1.6 6.4 0.36 1.17 0.74 98 1005.5
20260506123035 7 188 1.6 6.4 0.36 1.14 0.74 98 1005.5
20260506122747 7 52 1.6 6.4 0.33 1.12 0.71 97 1005.5
20260506122238 7 316 1.6 4.8 0.33 1.09 0.69 97 1005.7
20260506121734 7 316 1.6 4.8 0.30 1.07 0.64 97 1005.8
20260506121013 7 317 4.8 22.5 0.30 1.04 0.61 97 1005.9
20260506120510 6 317 6.4 24.1 0.28 1.02 0.61 97 1005.8
20260506120229 7 252 4.8 24.1 0.23 0.97 0.53 97 1006.4
20260506115510 7 250 3.2 9.7 0.18 0.91 0.51 97 1005.8
20260506115009 7 214 3.2 9.7 0.18 0.89 0.46 97 1005.8
20260506114508 7 252 3.2 6.4 0.15 0.86 0.43 97 1005.6
20260506114009 7 268 1.6 8.0 0.13 0.81 0.41 97 1005.7
20260506113508 7 350 1.6 8.0 0.13 0.81 0.38 97 1005.4
20260506113009 7 244 1.6 6.4 0.13 0.79 0.36 97 1005.6
20260506112509 7 244 3.2 8.0 0.13 0.79 0.36 97 1005.7
20260506112007 7 243 3.2 8.0 0.13 0.76 0.33 97 1005.8
20260506111506 7 237 3.2 8.0 0.13 0.76 0.33 97 1005.7
20260506111006 7 258 1.6 3.2 0.10 0.74 0.30 97 1005.7
20260506110505 7 258 1.6 11.3 0.10 0.74 0.30 97 1005.7
20260506110007 7 258 3.2 11.3 0.10 0.74 0.30 97 1005.8
20260506105007 7 222 4.8 12.9 0.08 0.71 0.28 97 1006.0
20260506104504 7 222 6.4 12.9 0.10 0.71 0.28 97 1005.9
20260506104005 7 344 6.4 14.5 0.08 0.71 0.28 97 1005.5
20260506103725 7 263 8.0 16.1 0.08 0.71 0.25 97 1006.4
20260506103221 7 255 4.8 16.1 0.05 0.69 0.23 97 1006.4
20260506102503 7 258 3.2 12.9 0.05 0.69 0.23 97 1006.1
20260506102003 7 346 1.6 4.8 0.03 0.66 0.20 97 1005.7
20260506101500 7 347 0.0 3.2 0.03 0.66 0.20 97 1005.6
20260506100958 7 347 0.0 3.2 0.03 0.66 0.20 97 1005.5
20260506100458 7 347 0.0 3.2 0.03 0.66 0.20 97 1005.6
20260506100222 7 347 0.0 4.8 0.03 0.66 0.20 97 1005.6
20260506095459 7 347 0.0 4.8 0.03 0.66 0.20 97 1005.6
20260506094959 7 347 1.6 4.8 0.03 0.66 0.20 97 1005.7
20260506094452 7 347 1.6 4.8 0.03 0.64 0.18 97 1005.7
20260506094208 7 347 1.6 4.8 0.05 0.64 0.18 96 1005.7
20260506093442 7 347 1.6 4.8 0.05 0.64 0.18 96 1005.9
20260506092940 7 348 1.6 4.8 0.05 0.64 0.18 96 1005.9
20260506092704 7 349 1.6 6.4 0.05 0.64 0.18 96 1005.6
20260506091940 7 355 1.6 8.0 0.05 0.64 0.18 96 1005.7
20260506091440 7 0 3.2 8.0 0.05 0.64 0.18 96 1006.0
20260506090941 7 325 1.6 8.0 0.05 0.64 0.18 96 1006.0
20260506090438 7 286 1.6 8.0 0.05 0.64 0.18 96 1005.9
20260506090159 7 349 3.2 6.4 0.05 0.64 0.18 96 1006.0
20260506085436 7 329 4.8 12.9 0.05 0.64 0.18 96 1006.2
20260506084937 7 323 8.0 19.3 0.05 0.64 0.18 96 1006.4
20260506084434 7 0 6.4 19.3 0.03 0.61 0.15 96 1007.2
20260506083932 7 268 3.2 9.7 0.00 0.58 0.13 96 1006.7
20260506083653 7 0 3.2 12.9 0.00 0.58 0.13 96 1006.0
20260506082928 7 304 3.2 12.9 0.00 0.58 0.13 96 1006.5
20260506082428 7 303 3.2 6.4 0.00 0.58 0.13 96 1006.5
20260506081929 7 302 1.6 6.4 0.00 0.58 0.13 96 1006.5
20260506081424 7 285 3.2 6.4 0.00 0.58 0.13 96 1006.4
20260506081142 8 285 1.6 6.4 0.00 0.58 0.13 95 1006.6
20260506080422 8 337 1.6 8.0 0.00 0.58 0.13 95 1006.2
20260506080146 8 338 4.8 16.1 0.00 0.58 0.13 96 1006.4
20260506073418 8 319 4.8 17.7 0.00 0.58 0.13 96 1006.5
20260506072919 8 63 4.8 17.7 0.00 0.58 0.13 96 1006.2
20260506072418 8 250 4.8 12.9 0.00 0.58 0.13 96 1006.8
20260506072139 8 321 4.8 12.9 0.00 0.58 0.13 96 1006.6
20260506071415 8 315 4.8 11.3 0.00 0.58 0.13 96 1006.7
20260506070914 8 279 3.2 9.7 0.00 0.58 0.13 96 1006.9
20260506070411 8 307 1.6 8.0 0.00 0.58 0.13 97 1006.5
20260506062404 8 254 4.8 12.9 0.03 0.58 0.13 97 1006.2
20260506061903 8 252 4.8 12.9 0.03 0.58 0.13 97 1006.1
20260506061404 8 251 4.8 11.3 0.03 0.58 0.13 97 1006.2
20260506060904 8 269 6.4 12.9 0.03 0.58 0.13 97 1006.2
20260506060623 8 313 8.0 19.3 0.03 0.58 0.13 97 1006.4
20260506051358 9 269 4.8 11.3 0.08 0.56 0.10 97 1007.0
20260506051120 9 244 4.8 9.7 0.08 0.56 0.10 97 1007.0
20260506050358 9 256 4.8 11.3 0.10 0.56 0.10 97 1006.9
20260506044858 9 277 4.8 12.9 0.08 0.53 0.08 96 1007.0
20260506044357 9 265 4.8 12.9 0.08 0.53 0.08 96 1007.5
20260506043852 9 262 4.8 11.3 0.08 0.53 0.08 96 1007.1
20260506043351 9 261 3.2 11.3 0.08 0.53 0.08 96 1007.3
20260506042852 9 325 3.2 12.9 0.08 0.53 0.08 96 1007.0
20260506042352 9 252 4.8 12.9 0.08 0.53 0.08 96 1007.4
20260506041849 9 281 4.8 12.9 0.05 0.51 0.05 96 1007.4
20260506041350 9 258 4.8 12.9 0.05 0.48 0.03 96 1007.4
20260506040850 9 257 4.8 12.9 0.05 0.48 0.03 96 1007.5
20260506040350 9 259 3.2 12.9 0.03 0.46 0.00 96 1007.4
20260506040117 9 315 1.6 4.8 0.03 0.46 0.46 96 1007.0
20260506035620 9 319 1.6 4.8 0.03 0.46 0.46 96 1006.9
20260506035112 9 319 1.6 4.8 0.03 0.46 0.46 95 1007.0
20260506034347 9 338 3.2 9.7 0.05 0.46 0.46 95 1006.7
20260506033845 9 338 3.2 9.7 0.05 0.46 0.46 95 1006.6
20260506033341 9 317 3.2 8.0 0.05 0.46 0.46 95 1007.2
20260506032839 10 26 3.2 9.7 0.05 0.46 0.46 94 1006.9
20260506032340 10 315 4.8 9.7 0.05 0.46 0.46 94 1006.9
20260506031840 10 31 3.2 6.4 0.05 0.46 0.46 95 1006.6
20260506031339 10 30 1.6 6.4 0.03 0.43 0.43 94 1006.9
20260506030840 10 269 3.2 9.7 0.05 0.43 0.43 94 1007.2
20260506030338 10 263 3.2 9.7 0.05 0.43 0.43 93 1007.1
20260506025838 10 267 1.6 6.4 0.05 0.43 0.43 93 1007.0
20260506025555 10 263 4.8 14.5 0.05 0.43 0.43 92 1006.9
20260506024838 10 247 4.8 14.5 0.05 0.43 0.43 92 1007.1
20260506024556 10 262 8.0 22.5 0.03 0.41 0.43 92 1007.2
20260506023834 11 246 9.7 24.1 0.03 0.41 0.41 91 1006.8
20260506023608 11 236 9.7 24.1 0.03 0.41 0.41 91 1007.0
20260506022833 11 338 9.7 27.4 0.03 0.41 0.41 91 1006.6
20260506022334 11 331 11.3 27.4 0.03 0.41 0.41 91 1006.5